Погода в Паралии Катерини

Греция     40°16′00″N   22°34′59″E
темп.,
°C
ветер,
м/с
пор.,
м/с
влажн.,
%
обл.,
%
осадки,
мм/ч
давл.,
гПа
погр.,
м
18 мая, вт
вт1800:00+17юз22581 0.0 100715
03:00+17з22490 0.0 100725
06:00+16зюз22540 0.0 100720
09:00+22ссв12490 0.0 1009317
12:00+26св36374 0.0 10092230
15:00+24св664538 0.0 10101020
18:00+24юв33432 0.0 1010748
21:00+18юз11565 0.0 101212
19 мая, ср
ср1900:00+17з334146 0.0 101425
03:00+16зсз22380 0.0 101415
06:00+14зсз11463 0.0 101412
09:00+18св32503 0.0 1014266
12:00+21в3258100 0.0 1013675
15:00+23в435657 0.0 1011643
18:00+21в45600 0.0 1010322
21:00+17ю22784 0.0 100913
20 мая, чт
чт2000:00+16з22535 0.0 100912
03:00+16з22435 0.0 100917
06:00+15з22540 0.0 100818
09:00+20св11478 0.0 1009349
12:00+23в4241100 0.0 1009884
15:00+25юв333411 0.0 10071436
18:00+24всв2240100 0.0 1007350
21:00+16ссз265992 0.0 1010190
21 мая, пт
пт2100:00+13з347599 0.3 101265
03:00+14юз127176 0.8 101242
06:00+11з337433 0.0 101342
09:00+17сз612495 0.0 10141783
12:00+20ссз811385 0.0 10152130
15:00+21ссз710357 0.0 10152282
18:00+21с78373 0.0 10141855
21:00+15зсз32550 0.0 101628
22 мая, сб
сб2200:00+14з33510 0.0 101732
03:00+13з22490 0.0 101619
06:00+11зсз11570 0.0 101611
09:00+17всв21490 0.0 1017309
12:00+21в32414 0.0 1016857
15:00+23вюв43387 0.0 1016828
18:00+22юв33450 0.0 1014348
21:00+16ю22770 0.0 101513